[[[{"header":{"parameterUnit":"kt","parameterCategory":2,"dx":1,"dy":1,"la1":30.253999710083008,"la2":30.299108505249023,"lo1":-89.0895004272461,"lo2":-89.04439544677734,"nx":28,"ny":28,"refTime":"2022-09-20T09:00:00:Z","depth":0,"parameterNumber":1,"parameterNumberName":"U-component_of_WINDS"},"data":[-0.0708,-0.0521,-0.0523,-0.0309,-0.0273,-0.0126,-0.0073,-0.0004,0.0052,0.0231,0.0334,0.0358,0.0418,0.0545,0.066,0.0669,0.0716,0.078,0.0779,0.049,0.045,0.0412,0.0363,0.0792,0.0792,0.1075,0.1078,0.108,-0.0929,-0.0893,-0.0779,-0.067,-0.0572,-0.0636,-0.0551,-0.0465,-0.0329,-0.0256,-0.0153,0.0007,0.0136,0.0177,0.0302,0.0392,0.0371,0.0426,0.0417,0.0427,0.0119,0.0067,0.044,0.044,0.044,0.044,0.044,0.044,-0.1333,-0.1219,-0.1155,-0.1031,-0.0974,-0.0899,-0.0789,-0.0766,-0.0651,-0.0523,-0.0541,-0.0385,-0.0308,-0.0153,-0.0098,0.0025,-0.0034,0.0028,0.0043,0.0057,0.0069,-0.0352,0.0049,0.0048,0.0047,0.0046,0.0045,0,-0.163,-0.164,-0.1529,-0.142,-0.1328,-0.124,-0.1159,-0.109,-0.1103,-0.1005,-0.0864,-0.0782,-0.0617,-0.0482,-0.0361,-0.0316,-0.0368,-0.0369,-0.0328,-0.0322,-0.0335,-0.0332,-0.084,-0.0381,-0.0385,-0.0387,-0.0389,-0.0391,-0.2043,-0.1908,-0.1837,-0.176,-0.1716,-0.1587,-0.151,-0.1531,-0.1448,-0.1347,-0.1242,-0.1107,-0.1,-0.0767,-0.0734,-0.0608,-0.0632,-0.0459,-0.0613,-0.0614,-0.0635,-0.0646,-0.0635,-0.0429,-0.0424,-0.042,-0.0417,0,-0.2277,-0.2278,-0.2067,-0.2008,-0.1989,-0.1845,-0.1794,-0.1676,-0.1664,-0.1501,-0.1463,-0.1441,-0.1298,-0.1293,-0.1124,-0.1126,-0.0887,-0.091,-0.0917,-0.0923,-0.0771,-0.0788,-0.0268,-0.0204,-0.0642,-0.0638,-0.0634,0,-0.2631,-0.245,-0.2463,-0.234,-0.214,-0.2167,-0.1967,-0.1936,-0.1872,-0.1743,-0.1803,-0.168,-0.1692,-0.1567,-0.1567,-0.1369,-0.1335,-0.1326,-0.1329,-0.1323,-0.1325,-0.1278,-0.1301,-0.1334,-0.1337,-0.1339,-0.1341,0,-0.3001,-0.2791,-0.2592,-0.2544,-0.2461,-0.2365,-0.2324,-0.2251,-0.2172,-0.2069,-0.2018,-0.1892,-0.1823,-0.1724,-0.1728,-0.1834,-0.1483,-0.1628,-0.1474,-0.1474,-0.1398,-0.1403,-0.0943,-0.1344,-0.1345,-0.1346,-0.1347,0,-0.3288,-0.3189,-0.2896,-0.2831,-0.2774,-0.2638,-0.2523,-0.2405,-0.2322,-0.2317,-0.2233,-0.2272,-0.2095,-0.2241,-0.1998,-0.2137,-0.2065,-0.2038,-0.2027,-0.2013,-0.2178,-0.1925,-0.1484,-0.144,-0.1999,-0.2004,-0.2009,0,-0.3714,-0.3418,-0.3441,-0.3159,-0.3023,-0.3106,-0.2955,-0.288,-0.286,-0.2738,-0.2713,-0.2571,-0.2678,-0.2633,-0.2513,-0.2481,-0.23,-0.2504,-0.2326,-0.2319,-0.2353,-0.1946,-0.1885,-0.1581,-0.2078,-0.2071,-0.2065,0,-0.4045,-0.3948,-0.3895,-0.3844,-0.3751,-0.3633,-0.3459,-0.3327,-0.3246,-0.315,-0.3006,-0.28,-0.2876,-0.2798,-0.2814,-0.2689,-0.2423,-0.2784,-0.2782,-0.2723,-0.211,-0.2054,-0.2003,-0.2461,-0.2452,-0.2446,-0.212,0,-0.449,-0.4339,-0.4197,-0.4076,-0.3985,-0.3805,-0.3806,-0.3709,-0.3739,-0.3722,-0.3504,-0.3433,-0.3291,-0.3228,-0.3251,-0.2966,-0.3013,-0.3091,-0.3234,-0.2966,-0.2859,-0.2814,-0.3395,-0.34,-0.3403,-0.3406,0,0,-0.4899,-0.4685,-0.4713,-0.4547,-0.4473,-0.456,-0.4369,-0.4304,-0.4169,-0.4115,-0.4196,-0.3897,-0.3834,-0.3568,-0.3484,-0.3423,-0.3373,-0.3464,-0.3092,-0.3058,-0.3025,-0.2911,-0.2865,-0.3412,-0.3413,-0.3415,-0.3416,0,-0.5064,-0.5007,-0.4819,-0.4756,-0.4664,-0.4656,-0.461,-0.4531,-0.4511,-0.4296,-0.4367,-0.4233,-0.3989,-0.3917,-0.3847,-0.3497,-0.3556,-0.3452,-0.3269,-0.3128,-0.3088,-0.3053,-0.2933,-0.2889,-0.3424,-0.3423,-0.3423,0,-0.5393,-0.5339,-0.5248,-0.5082,-0.502,-0.4873,-0.5027,-0.4862,-0.4752,-0.4847,-0.4632,-0.4591,-0.449,-0.4236,-0.4122,-0.419,-0.3724,-0.3866,-0.3844,-0.3831,-0.3693,-0.3646,-0.3603,-0.4162,-0.4165,-0.4167,0,0,-0.5534,-0.5394,-0.534,-0.5117,-0.5074,-0.5058,-0.4977,-0.4999,-0.4911,-0.4874,-0.4823,-0.4731,-0.4591,-0.4497,-0.4363,-0.4084,-0.4066,-0.3958,-0.3923,-0.3894,-0.3866,-0.3721,-0.3674,-0.4177,-0.4177,-0.4177,0,0,-0.56,-0.5532,-0.5579,-0.5321,-0.5238,-0.5166,-0.5028,-0.5081,-0.4962,-0.4982,-0.5003,-0.4979,-0.4741,-0.4695,-0.483,-0.4414,-0.4555,-0.4523,-0.4453,-0.4409,-0.4375,-0.4392,-0.4972,0,0,0,0,0,-0.5769,-0.5543,-0.5586,-0.5542,-0.5328,-0.5143,-0.5115,-0.5132,-0.5235,-0.5126,-0.5092,-0.5158,-0.4774,-0.4894,-0.4847,-0.4696,-0.4305,-0.4283,-0.4261,-0.4106,-0.406,-0.4021,0,0,0,0,0,0,-0.5752,-0.57,-0.5592,-0.5511,-0.5463,-0.5151,-0.533,-0.5328,-0.5247,-0.5264,-0.5163,-0.5155,-0.5161,-0.4918,-0.4876,-0.4732,-0.4986,-0.4296,-0.4277,-0.426,-0.409,-0.4053,-0.402,0,0,0,0,0,-0.5739,-0.5697,-0.535,-0.5514,-0.5472,-0.544,-0.5339,-0.5339,-0.5276,-0.5221,-0.5215,-0.5296,-0.5157,-0.5122,-0.4893,-0.4752,-0.5015,-0.5,-0.4284,-0.4269,-0.4255,-0.4072,0,0,0,0,0,0,-0.5729,-0.5693,-0.5342,-0.533,-0.5602,-0.5458,-0.5437,-0.5347,-0.5238,-0.523,-0.5355,-0.537,-0.5151,-0.5125,-0.5097,-0.4758,-0.5039,-0.5023,-0.5013,-0.4272,-0.426,-0.425,0,0,0,0,0,0,-0.5716,-0.5682,-0.5336,-0.5445,-0.5446,-0.5474,-0.5455,-0.526,-0.5235,-0.5378,-0.5387,-0.5363,-0.5189,-0.5125,-0.5105,-0.4799,-0.5058,-0.5042,-0.5032,-0.5025,-0.4263,-0.4253,0,0,0,0,0,0,-0.5702,-0.5673,-0.5449,-0.5449,-0.545,-0.5313,-0.5302,-0.5079,-0.5336,-0.5381,-0.5359,-0.537,-0.5187,-0.5167,-0.5109,-0.4812,-0.4803,-0.5057,-0.5047,-0.5039,-0.5034,0,0,0,0,0,0,0,-0.5691,-0.5884,-0.5415,-0.5452,-0.5453,-0.5216,-0.5213,-0.521,-0.5339,-0.5348,-0.5357,-0.5365,-0.5146,-0.5129,-0.5112,-0.4823,0,0,-0.5059,-0.5051,0,0,0,0,0,0,0,0,-0.5896,-0.5887,-0.5415,-0.5412,-0.541,-0.5216,-0.5213,-0.521,-0.534,-0.5348,-0.5355,-0.5362,-0.5141,-0.5127,-0.5114,0,0,0,0,0,0,0,0,0,0,0,0,0,0,0,-0.5415,-0.5413,0,-0.5215,-0.5213,-0.5211,-0.5341,-0.5347,-0.5353,-0.5359,-0.5137,-0.5126,-0.5115,0,0,0,0,0,0,0,0,0,0,0,0,0,0,0,0,0,0,0,0,0,0,0,0,0,0,0,0,0,0,0,0,0,0,0,0,0,0,0,0,0,0,0,0,0,0,0,0,0,0,0,0,0,0,0,0,0,0,0,0,0,0,0,0,0,0,0,0,0]}],[{"header":{"parameterUnit":"kt","parameterCategory":2,"dx":1,"dy":1,"la1":30.253999710083008,"la2":30.299108505249023,"lo1":-89.0895004272461,"lo2":-89.04439544677734,"nx":28,"ny":28,"refTime":"2022-09-20T09:00:00:Z","depth":0,"parameterNumber":2,"parameterNumberName":"V-component_of_WINDS"},"data":[3.2459,3.2567,3.2528,3.2635,3.2619,3.2684,3.2696,3.2707,3.2707,3.2783,3.2819,3.2796,3.2783,3.2819,3.2857,3.2846,3.2862,3.2924,3.2899,3.2653,3.2617,3.2582,3.2549,3.2931,3.2931,3.3154,3.3157,3.3158,3.2267,3.2251,3.2299,3.2319,3.2358,3.2272,3.2283,3.2321,3.2384,3.2388,3.2425,3.249,3.2538,3.2505,3.2545,3.2594,3.2556,3.2607,3.2598,3.2596,3.2334,3.23,3.2636,3.2636,3.2636,3.2636,3.2635,3.2635,3.1906,3.1976,3.1964,3.2016,3.2017,3.2032,3.2092,3.206,3.2108,3.2146,3.2097,3.2169,3.2168,3.2203,3.2207,3.2262,3.2199,3.2244,3.2253,3.2263,3.2275,3.1939,3.2269,3.2268,3.2267,3.2266,3.2266,0,3.1628,3.1591,3.1637,3.1669,3.1706,3.1731,3.1747,3.1784,3.1699,3.1745,3.1805,3.1835,3.1895,3.1948,3.1982,3.1978,3.1894,3.1887,3.1915,3.1933,3.1942,3.1927,3.1492,3.1877,3.1873,3.1871,3.1869,3.1868,3.1253,3.1343,3.1318,3.1354,3.1354,3.1419,3.1448,3.1368,3.1403,3.1414,3.1481,3.1536,3.1575,3.1684,3.165,3.1697,3.1656,3.1804,3.1662,3.1675,3.1645,3.1637,3.1641,3.1831,3.1835,3.1839,3.1842,0,3.1042,3.0983,3.1112,3.1081,3.1075,3.1174,3.1147,3.1217,3.1182,3.1272,3.1289,3.1234,3.1299,3.1241,3.1308,3.1275,3.1429,3.1394,3.1424,3.141,3.153,3.1516,3.1949,3.1996,3.1611,3.1614,3.1618,0,3.0695,3.082,3.0721,3.08,3.0934,3.0849,3.0984,3.0966,3.0966,3.1037,3.0935,3.1004,3.0922,3.0983,3.0936,3.1054,3.1071,3.1049,3.1034,3.1053,3.1055,3.1067,3.1045,3.101,3.1007,3.1005,3.1004,0,3.0364,3.0465,3.0593,3.0606,3.0588,3.0651,3.0648,3.0648,3.0682,3.0717,3.0736,3.0786,3.0812,3.0851,3.0789,3.0693,3.0936,3.0793,3.0913,3.0915,3.0966,3.0962,3.1365,3.1001,3.1,3.1,3.0999,0,3.0073,3.0108,3.0308,3.0286,3.0317,3.0406,3.0443,3.0507,3.0516,3.0491,3.052,3.0444,3.0551,3.041,3.0553,3.0444,3.0474,3.0467,3.0475,3.0474,3.0316,3.0539,3.0937,3.0971,3.048,3.0475,3.0472,0,2.9704,2.9893,2.982,3.0015,3.0092,2.9965,3.0063,3.0076,3.0051,3.0113,3.0087,3.0163,3.0047,3.0062,3.0142,3.0117,3.0259,3.0098,3.0182,3.0186,3.0171,3.0538,3.0607,3.0857,3.0416,3.0422,3.0426,0,2.9412,2.9391,2.9432,2.9439,2.9444,2.9513,2.9628,2.9683,2.9726,2.9759,2.9848,2.9961,2.9872,2.9903,2.985,2.9936,3.0161,2.9832,2.9831,2.9884,3.0388,3.045,3.0492,3.0105,3.0112,3.0117,3.0382,0,2.8963,2.9055,2.9165,2.9197,2.9242,2.9366,2.9303,2.9358,2.9297,2.9268,2.9407,2.9411,2.9473,2.9512,2.9459,2.9677,2.963,2.954,2.9394,2.964,2.9724,2.976,2.9272,2.9267,2.9263,2.926,0,0,2.862,2.875,2.8671,2.8779,2.881,2.8679,2.8815,2.8834,2.8876,2.8899,2.8818,2.8977,2.8986,2.916,2.9232,2.9263,2.9293,2.9213,2.9526,2.9556,2.9583,2.9675,2.9714,2.9253,2.9252,2.9251,2.9249,0,2.8441,2.845,2.8587,2.86,2.8617,2.858,2.8614,2.8609,2.8598,2.8738,2.8629,2.8707,2.8844,2.886,2.8888,2.9191,2.9104,2.9218,2.9394,2.949,2.9525,2.9556,2.9653,2.9691,2.924,2.9241,2.9241,0,2.8133,2.8128,2.8189,2.8261,2.8273,2.8363,2.8192,2.83,2.8364,2.8222,2.8362,2.8359,2.8383,2.8561,2.864,2.8569,2.8934,2.8815,2.8838,2.8844,2.8933,2.8976,2.9014,2.8515,2.8513,2.8511,0,0,2.7987,2.8074,2.8046,2.8219,2.8233,2.8182,2.8227,2.8171,2.8194,2.8205,2.8197,2.8224,2.8299,2.8353,2.8423,2.8631,2.8625,2.8728,2.8762,2.879,2.8812,2.8909,2.8951,2.8502,2.8502,2.8502,0,0,2.7918,2.789,2.7824,2.8017,2.8041,2.8027,2.8135,2.8055,2.8112,2.8091,2.8008,2.8012,2.8179,2.8182,2.807,2.8368,2.8227,2.8253,2.836,2.8402,2.8436,2.8429,2.7899,0,0,0,0,0,2.7702,2.7891,2.7833,2.7856,2.7952,2.8059,2.8071,2.8003,2.79,2.7986,2.7966,2.7874,2.8102,2.8001,2.8027,2.8151,2.8389,2.8409,2.8428,2.8614,2.8659,2.8697,0,0,0,0,0,0,2.7711,2.7739,2.7827,2.7823,2.7843,2.8051,2.7861,2.7848,2.7889,2.7868,2.788,2.7874,2.7822,2.7984,2.8008,2.8127,2.7891,2.8397,2.8414,2.8429,2.863,2.8666,2.8698,0,0,0,0,0,2.7717,2.774,2.7911,2.7819,2.7838,2.7792,2.7853,2.7841,2.7872,2.7844,2.7834,2.7817,2.7827,2.7843,2.7998,2.8117,2.7873,2.7883,2.8408,2.8421,2.8433,2.8648,0,0,0,0,0,0,2.7722,2.773,2.7913,2.7916,2.7743,2.7779,2.7782,2.7835,2.7843,2.7836,2.7775,2.7759,2.7833,2.7844,2.7857,2.8117,2.7859,2.7869,2.7875,2.8418,2.8429,2.8438,0,0,0,0,0,0,2.7717,2.7734,2.7915,2.7822,2.7814,2.7768,2.7771,2.7896,2.7845,2.7774,2.776,2.7768,2.7815,2.7847,2.7856,2.8054,2.7848,2.7857,2.7864,2.7868,2.8427,2.8435,0,0,0,0,0,0,2.7723,2.7737,2.7821,2.7815,2.7807,2.7836,2.7877,2.798,2.7762,2.7776,2.7741,2.7731,2.782,2.7828,2.7856,2.8051,2.8053,2.7849,2.7855,2.7859,2.7862,0,0,0,0,0,0,0,2.7728,2.7649,2.7895,2.7808,2.7801,2.7944,2.7945,2.7946,2.776,2.7751,2.7743,2.7735,2.7796,2.7806,2.7816,2.8048,0,0,2.7848,2.7852,0,0,0,0,0,0,0,0,2.7641,2.7647,2.7895,2.7896,2.7896,2.7944,2.7945,2.7946,2.7758,2.7752,2.7745,2.7738,2.7799,2.7807,2.7815,0,0,0,0,0,0,0,0,0,0,0,0,0,0,0,2.7895,2.7896,0,2.7944,2.7945,2.7945,2.7757,2.7752,2.7746,2.7741,2.7801,2.7808,2.7815,0,0,0,0,0,0,0,0,0,0,0,0,0,0,0,0,0,0,0,0,0,0,0,0,0,0,0,0,0,0,0,0,0,0,0,0,0,0,0,0,0,0,0,0,0,0,0,0,0,0,0,0,0,0,0,0,0,0,0,0,0,0,0,0,0,0,0,0,0]}]]]